Location: Sydney
(46.1500°N, 60.1670°W)
Time: 09:09:34
(UTC-03:00)

Iridium 90 - Visible Passes

Search period start: 30 July 2015 00:00
Search period end: 09 August 2015 00:00
Orbit: 747 x 750 km, 86.4° (Epoch: 29 July)

Date Brightness Start Highest point End Pass type
(mag) Time Alt. Az. Time Alt. Az. Time Alt. Az.
30 Jul 7.4 00:24:13 16° WSW 00:26:44 22° WNW 00:30:36 10° NNW visible
30 Jul 6.8 22:02:17 17° ESE 22:04:27 23° E 22:08:27 10° NNE visible
30 Jul 6.3 23:42:08 28° SW 23:44:20 45° W 23:49:12 10° N visible
31 Jul 7.5 21:21:40 10° E 21:22:48 11° ENE 21:24:14 10° ENE visible
31 Jul 5.4 23:00:02 36° S 23:02:12 85° E 23:07:17 10° N visible
01 Aug 7.9 00:40:44 10° W 00:43:09 13° WNW 00:45:19 10° NW visible
01 Aug 6.0 22:17:55 25° SE 22:20:14 40° E 22:24:58 10° NNE visible
01 Aug 7.2 23:57:47 17° WSW 00:00:32 26° WNW 00:04:46 10° NNW visible
02 Aug 7.0 21:35:48 13° ESE 21:38:28 19° E 21:42:05 10° NE visible
02 Aug 6.0 23:15:39 27° SSW 23:18:12 55° W 23:23:12 10° N visible
03 Aug 5.4 22:33:31 29° SSE 22:36:07 70° E 22:41:11 10° N visible
04 Aug 7.9 00:13:47 10° WSW 00:16:54 16° WNW 00:19:49 10° NW visible
04 Aug 6.3 21:51:22 19° SE 21:54:13 33° E 21:58:45 10° NNE visible
04 Aug 6.9 23:31:12 17° SW 23:34:22 31° WNW 23:38:51 10° NNW visible
05 Aug 7.1 21:09:34 10° ESE 21:12:29 16° ENE 21:15:36 10° NE visible
05 Aug 5.7 22:49:03 24° SSW 22:52:06 67° W 22:57:10 10° N visible
06 Aug 5.5 22:06:51 21° SSE 22:10:03 58° E 22:15:03 10° N visible
06 Aug 7.7 23:47:03 10° WSW 23:50:40 19° WNW 23:54:08 10° NNW visible
07 Aug 6.5 21:24:39 13° SE 21:28:12 27° E 21:32:29 10° NNE visible
07 Aug 6.7 23:04:29 15° SW 23:08:12 38° W 23:12:54 10° NNW visible
08 Aug 5.5 22:22:15 19° S 22:26:00 81° W 22:31:06 10° N visible
